Location: Newark
(35.8833°N, 14.5000°E)
Time: 05:55:42
(UTC+00:00)

Altair - Pass Details

Date: 24 November 2019
Orbit: 1502 x 1682 km, 47.2° (Epoch: 07 December)

Event Time Altitude Azimuth Distance (km) Brightness Sun altitude
Rises 21:23:08 0° 180° (S) 4,725 - -65.8°
Reaches altitude 10° 21:27:35 10° 163° (SSE) 3,713 - -66.6°
Maximum altitude 21:33:13 18° 125° (SE) 3,111 - -67.5°
Drops below altitude 10° 21:38:45 10° 87° (E) 3,663 - -68.4°
Sets 21:43:02 0° 69° (ENE) 4,637 - -69.0°
